Погода в Ужгороде

Поиск расширенной информации на нашем сайте:

Полезная информация:

Новости сайта



02.01.2020
Опубликован Долгосрочный прогноз погоды по городам России и ближнего зарубежья на январь 2020 года.
Карты: Прогноз на январь и февраль 2020 года, Сравнение прогнозируемой аномалии приземной температуры воздуха на январь 2020 года по разным моделям.




Погода в Ужгороде - сегодня

Время (UTC), дата Ветер
(°,м/с) 
Видим.   Явления Облачность Т
(°С)
Тd
(°С)
f(%) Тe
(°С)
Pmin
(гПа)
dP
(гПа)
Po
(мм)
O2
(г/м3)
Тmin Tmax R s Состояние
почвы
21 22.10.20 130 (ЮВ) 10 км    3/0 верхняя 
[Ci fib]
+10.2 +7.3 82 +10  1021.1  -0.5  755  292           
00 23.10.20 110 (В) 10 км    4/0 верхняя 
[Ci fib]
+9.8 +7 83 +10  1020.8  -0.3  755  292           
03 23.10.20 130 (ЮВ) 10 км    6/0 средняя 
[Ac trans]
+8.7 +6.8 88 +8  1020.2  -0.6  754  293           
06 23.10.20 150 (ЮВ) 10 км    8/0 средняя 
[Ac trans]
+9.4 +6.8 84 +9  1020.5  0.3  755  293  +6.4         
09 23.10.20 130 (ЮВ) 10 км    10/10 1440 м 
[Sc]
+13.1 +7.4 68 +12  1020.2  -0.1  755  289           
12 23.10.20 130 (ЮВ) 10 км    10/10 1200 м 
[Sc]
+15 +8.7 66 +15  1018.2  -1.9  753  286           
15 23.10.20 110 (В) 10 км    10/10 1300 м 
[Sc]
+14.9 +8.8 67 +16  1016.7  -1.5  752  286           
18 23.10.20 320 (СЗ) 10 км    10/10 1050 м 
[Sc]
+12.6 +10.3 86 +16  1016.6  -0.2  752  288    +15.3       
21 23.10.20 110 (В) 10 км    10/10 900 м 
[Sc]
+13.4 +10.7 84 +17  1016.2  -0.3  752  287           
00 24.10.20 140 (ЮВ) 10 км    9/9 1000 м 
[Sc]
+13.2 +9.7 79 +15  1015.4  -0.8  751  287           
03 24.10.20 140 (ЮВ) 10 км    8/4 1000 м средняя 
[Sc|Ac und]
+12.8 +10.3 85 +15  1015.3  -0.1  751  287           
06 24.10.20 тихо ()   10 км    9/4 1000 м средняя 
[Sc|Ac und]
+11.6 +9.2 85 +12  1015.7  0.3  751  289  +11         
09 24.10.20 130 (ЮВ) 10 км  слаб. дождь  10/10 1000 м 
[Sc]
+13.8 +9.9 77 +15  1016  0.4  751  286           
12 24.10.20 130 (ЮВ) 10 км  {дождь}  10/5 1000 м средняя 
[Sc|Ac As]
+15.6 +10.7 73 +18  1016.4  0.5  752  285      0.3     
15 24.10.20 100 (В) 10 км    8/0 средняя 
[Ac trans]
+15.3 +11 76 +19  1015.9  0.5  751  285           
18 24.10.20 тихо ()   10 км    8/0 средняя 
[Ac und]
+12.3 +10.8 91 +14  1017.6  1.5  753  288    +16  0.3     
21 24.10.20 тихо ()   10 км    8/0 средняя 
[Ac trans]
+11.3 +10.3 94 +13  1017.3  -0.4  752  289           
00 25.10.20 020 (С) 10 км    10/0 средняя 
[Ac und]
+10.8 +10 95 +13  1016.7  -0.6  752  290           
03 25.10.20 тихо ()   10 км    10/0 средняя 
[Ac und]
+11.2 +10.2 94 +13  1015.4  -1.2  751  289           
06 25.10.20 тихо ()   10 км  слаб. дождь  10/10 900 м 
[Sc]
+11.8 +10.6 92 +14  1015.2  -0.1  751  288  +10.4    0.7     
09 25.10.20 тихо ()   4000 м  слаб. дождь  10/8 180 м 
[Frnb]
+12.2 +11.4 95 +15  1015.2  -0.1  751  287           
12 25.10.20 тихо ()   4000 м  слаб. дождь  10/10 600 м 
[Ns]
+14.5 +12.9 90 +20  1014  -1  750  284         
15 25.10.20 100 (В) 10 км  в посл. час дождь  10/10 630 м 
[Sc]
+13.8 +12.7 93 +20  1013.6  -0.5  750  285           
18 25.10.20 120 (ЮВ) 4000 м  дымка{дождь}  10/10 900 м 
[Sc]
+13.4 +12.1 92 +18  1013.8  0.2  750  286    +14.7     
21 25.10.20 140 (ЮВ) 4000 м  дымка{дождь}  10/10 210 м 
[St]
+13.7 +12.8 94 +19  1014.2  0.4  750  285           
Время (UTC), дата Ветер
(°,м/с) 
Видим.   Явления Облачность Т
(°С)
Тd
(°С)
f(%) Тe
(°С)
Pmin
(гПа)
dP
(гПа)
Po
(мм)
O2
(г/м3)
Тmin Tmax R s Состояние
почвы

Для получения пояснительной информации подведите курсор к названию столбца.

ПОГОДА в Ужгороде - архив

Всё, что Вы хотите узнать о погоде в Ужгороде - удобно и подробно!

Выберите нужную дату (начиная с 1 января 2019* года) и нажмите кнопку "Найти".
Будут отображены архивные сводки погоды по пункту Ужгород, начиная с указанной даты.


Отображать данные в формате CSV (для использования в таблицах Excel)


Внимание! Наш архив погоды предназначен исключительно для личного некоммерческого использования в познавательных целях. Если Вам необходимы официальные справки о состоянии погоды (для производственных, юридических, коммерческих и т.п. целей), обращайтесь в органы Росгидромета.

*Примечание: данная дата относится к архиву по метеостанциям СССР (Россия, СНГ, Балтия).
Архив по метеостанциям Зарубежной Европы и Азии (кроме Китая) хранится 10 дней, по другим регионам земного шара (Китай, Африка, Америка, Австралия, Океания) - 1 день.

Ужгород - район местоположения метеостанции


Название, широта, долгота, высота метеостанции:
Ужгород 48.6°ш. 22.3°д. 124 м над ур. моря [Украина]

Дополнительная информация

В oтличие oт бoльшинства пoгoдных сайтoв мы публикуем пoдрoбную метеoинфoрмацию в детальнoм прoфессиoнальнoм фoрмате.

Характеристики температуры и влажнoсти вoздуха измеряются на высoте 2 м в тени вдали oт зданий и деревьев.
Скoрoсть ветра измеряется на высoте 10 м (на урoвне рoста челoвека скoрoсть ветра ниже в 1.5-2 раза). Если метеoстанция нахoдится в гoрoде или в лесу, тo скoрoсть ветра занижена на 2-4 м/с пo сравнению с oткрытым местoм. Скoрoсть ветра над акватoриями крупных рек и oзёр, а также на вершинах хoлмoв на 2-5 м/с выше, чем в oбычных услoвиях.
Атмoсфернoе давление в разных тoчках местнoсти мoжет значительнo oтличаться oт давления на метеoстанции, в зависимoсти oт услoвий рельефа (при пoдъёме на 10 м давление пoнижается примернo на 1 мм рт.ст.).